Theta_e
324 329 328 329 331 334 338 339 341 341 341 342 340 339 340 336 337 336 338 338 336 334 331 328 326 326 326 326 324 324 327 330 330 330 330 330 331 328 330 329 330 330 331 331 332 329 330 331 333 333 333 334 331 330 333 334 333 332 332 333 330 328 331 333 335 337 333 330 330 330 332 335 334 334 331 333 330 330 331 330 332 332 332 334 335
325 327 328 328 328 333 335 336 337 337 338 342 339 340 339 338 338 336 338 336 335 333 330 329 329 326 324 324 324 323 323 324 325 328 329 327 328 327 327 328 329 328 329 332 332 330 329 327 329 332 332 332 334 332 334 333 330 330 331 333 333 329 329 331 332 330 329 327 325 325 328 335 335 332 330 330 332 332 330 331 333 331 330 332 335
321 325 327 326 328 331 332 335 336 337 337 338 340 340 338 336 337 337 336 333 333 334 331 329 328 329 327 324 324 325 328 329 327 327 328 325 329 328 328 329 329 328 329 329 328 329 329 328 329 330 331 331 332 334 333 330 329 330 331 330 328 331 330 334 335 333 327 330 331 326 323 322 330 332 333 332 334 334 334 330 329 329 330 330 332
324 327 327 325 328 330 331 333 336 335 335 335 337 338 337 335 336 337 334 332 332 333 331 331 331 330 329 327 329 327 326 329 329 328 326 327 327 329 330 330 329 329 328 327 327 327 327 326 327 327 328 329 329 329 331 330 333 330 330 330 329 326 327 329 334 335 331 327 319 321 324 322 317 322 324 329 333 333 331 330 331 330 328 330 330
322 325 328 326 327 328 329 330 334 333 334 332 334 335 335 335 335 336 332 331 332 332 332 332 331 331 329 331 331 328 326 325 325 322 325 326 325 326 327 329 328 328 329 328 325 326 326 327 326 326 327 327 328 326 326 327 328 330 331 329 328 328 326 327 328 331 328 331 326 323 320 319 319 323 326 329 331 329 328 330 332 330 330 333 331
319 321 323 327 327 329 329 330 331 332 332 333 334 334 335 334 335 335 332 332 332 332 334 331 327 327 325 322 320 320 320 321 320 321 321 323 322 325 327 329 328 328 328 327 326 325 326 325 326 326 325 326 326 325 326 325 324 326 326 328 331 333 330 326 325 330 330 328 329 329 324 321 322 326 324 319 331 331 331 332 333 332 332 332 332
322 320 322 327 328 329 329 330 330 331 332 334 334 334 335 334 336 335 332 331 333 332 334 328 325 325 324 322 320 320 320 322 324 324 324 323 324 327 326 328 327 328 328 327 327 327 326 326 326 326 325 325 323 325 324 324 324 325 326 325 325 327 328 324 322 325 327 328 329 329 327 327 327 326 321 324 320 328 330 330 332 331 333 332 331
315 318 323 326 328 329 329 330 330 330 333 333 334 334 333 332 336 334 332 331 333 333 331 328 326 326 325 323 322 321 321 323 324 325 326 324 324 325 327 326 327 327 326 326 326 327 327 326 326 325 323 322 321 321 322 322 325 325 325 327 325 325 325 323 323 324 322 323 326 325 325 324 326 327 326 322 319 318 322 330 332 332 332 333 333
319 319 321 322 326 329 330 331 331 331 332 332 334 334 333 333 336 334 331 332 333 332 330 327 328 326 325 324 321 323 324 324 323 324 323 324 324 324 325 324 325 326 326 324 325 324 324 323 322 321 321 320 318 317 319 320 321 323 323 323 324 324 324 323 323 321 321 319 322 324 323 324 326 326 326 324 319 316 319 322 324 329 331 332 333
315 316 318 322 325 327 331 332 332 332 332 333 335 334 332 332 334 332 330 331 333 332 329 327 328 327 325 325 322 322 324 321 322 322 323 323 323 324 323 323 323 324 324 323 323 322 321 321 320 320 320 318 317 317 320 321 321 322 322 321 322 322 323 324 322 321 322 322 321 320 319 319 320 322 323 321 320 320 315 318 321 322 321 327 331
312 314 316 319 320 325 329 331 332 332 333 333 334 332 332 331 334 331 329 329 332 331 329 327 328 327 324 324 323 323 324 321 321 322 322 323 322 322 321 322 322 321 321 322 322 322 323 322 321 319 321 321 321 319 320 320 321 321 321 321 321 321 320 320 320 320 321 320 319 320 318 318 318 317 317 318 317 317 316 317 320 323 321 322 329
313 313 315 319 319 320 324 329 331 331 331 332 333 332 330 332 332 330 329 329 332 331 328 328 327 327 327 325 323 325 324 322 323 320 323 322 323 321 321 322 322 321 321 321 322 323 323 322 322 322 321 321 320 321 322 321 321 321 321 321 320 320 321 320 320 318 318 316 316 316 317 316 318 317 318 318 316 316 316 315 313 314 314 316 321
312 314 317 320 320 320 320 326 330 331 329 331 332 332 331 332 332 329 328 329 331 331 327 328 327 327 326 326 325 325 324 322 323 323 324 321 323 321 321 320 321 320 320 320 322 323 324 322 323 322 321 320 321 320 320 321 322 320 321 321 321 320 319 320 318 319 318 318 315 315 316 315 317 318 316 316 316 316 315 310 311 313 312 313 315
313 315 318 319 321 321 323 326 328 329 329 329 331 331 331 332 331 328 328 329 331 331 327 327 327 327 327 327 325 324 324 324 322 323 324 322 323 322 321 321 321 321 321 321 322 323 323 323 324 323 322 321 321 321 322 321 322 319 320 320 320 320 320 320 319 319 319 319 319 316 316 315 314 315 316 317 315 313 310 311 312 312 312 308 311
316 317 318 320 322 322 325 327 327 327 327 327 329 330 331 330 329 328 327 328 329 330 328 327 327 328 327 327 326 325 325 323 322 323 324 323 322 323 323 321 321 322 322 323 324 323 324 324 324 323 321 322 321 321 321 321 321 319 319 320 320 320 320 320 319 319 318 316 318 317 316 315 314 314 315 315 315 316 312 311 309 306 307 310 310
317 317 318 321 323 323 323 324 325 325 326 327 327 329 330 329 329 328 328 328 329 330 328 327 326 328 328 327 328 326 325 324 322 322 324 324 324 324 323 322 322 322 324 324 325 323 324 323 324 323 322 321 321 321 320 320 320 320 319 320 318 318 318 318 319 318 317 318 317 317 317 314 315 314 315 315 314 315 315 315 313 310 307 305 309
317 318 318 320 322 323 323 324 325 325 326 326 327 328 329 329 328 328 327 328 328 330 329 327 327 327 328 328 327 327 327 325 323 323 324 326 326 325 324 323 323 324 323 324 325 324 324 324 323 323 323 321 321 320 320 320 319 321 320 319 319 320 320 319 319 319 319 319 317 316 316 316 313 317 316 314 315 316 315 314 314 312 310 306 304
316 318 319 321 322 322 323 323 324 325 326 327 326 328 329 328 328 328 327 327 328 329 329 328 327 327 327 328 328 328 327 326 325 324 324 325 325 325 325 324 323 323 323 325 326 324 324 324 323 324 324 322 321 320 319 319 319 319 319 319 319 320 319 318 319 318 318 318 316 317 316 315 315 316 314 315 315 315 314 315 313 314 314 310 308
314 316 317 317 319 320 322 323 323 324 326 327 326 328 328 328 328 328 327 328 329 329 328 327 328 327 327 328 329 328 328 327 326 326 327 326 325 324 324 323 325 324 323 325 325 323 324 324 323 323 323 322 321 320 320 320 318 318 317 318 319 318 318 318 318 318 317 318 316 316 316 315 315 315 315 316 316 315 314 312 312 314 313 313 311
312 314 316 317 318 318 320 321 321 323 324 326 326 326 327 328 327 327 327 327 327 327 327 327 328 327 327 328 329 328 328 327 327 326 325 326 326 325 324 324 325 324 323 325 324 322 323 324 322 322 323 322 320 320 319 319 319 319 317 317 317 317 317 316 317 317 315 316 315 315 313 313 314 312 313 314 313 314 315 313 312 312 311 313 312
311 312 314 316 318 319 319 319 319 321 322 323 323 324 325 325 325 325 325 324 325 325 325 325 326 326 327 327 327 328 328 327 327 326 326 326 326 327 326 326 325 325 323 325 324 322 322 323 322 322 322 322 321 320 320 319 318 318 318 318 318 315 315 315 316 316 314 314 314 313 312 314 314 312 313 312 312 312 313 313 313 312 311 312 311
311 311 312 313 316 317 318 318 320 320 320 319 320 321 322 323 323 323 322 323 322 323 323 323 324 325 325 326 326 327 323 327 326 326 326 326 326 326 328 326 326 326 325 323 323 323 323 323 322 322 322 322 321 319 319 319 317 317 318 319 319 316 315 315 316 314 315 314 314 312 311 312 312 311 311 309 309 310 310 309 309 310 309 311 312
311 311 311 311 313 314 314 315 317 318 318 319 319 319 322 320 321 321 321 322 322 322 323 325 325 324 324 325 325 326 327 325 325 324 324 325 323 326 327 327 326 326 327 325 323 323 323 323 323 322 322 322 321 320 320 319 318 317 316 317 317 316 315 315 315 314 313 314 313 313 312 313 313 312 312 312 312 311 310 309 310 310 309 310 310
310 310 311 311 311 312 311 312 312 314 315 316 317 317 317 317 319 321 322 322 323 323 323 323 323 324 324 325 325 325 324 324 324 325 325 324 322 323 323 326 327 328 326 327 325 323 323 323 322 322 322 322 321 321 320 319 318 317 317 317 316 316 315 315 314 313 312 313 312 312 312 312 312 311 311 310 310 310 310 309 309 309 310 309 312
309 309 309 310 310 310 309 310 310 310 311 313 313 313 314 315 315 315 317 320 321 323 324 324 323 324 325 325 325 325 325 324 325 326 326 327 325 323 324 323 324 325 326 326 326 324 323 323 323 322 322 322 322 321 319 319 319 318 317 317 316 315 315 315 314 314 314 313 312 311 311 311 310 309 309 310 310 310 309 308 308 308 307 308 309
309 310 310 310 309 309 310 310 309 310 310 311 312 312 312 312 313 314 313 314 314 316 317 320 323 324 324 325 326 326 326 326 325 326 328 328 328 327 327 326 324 324 325 325 324 324 322 322 323 322 323 322 322 321 320 319 318 318 318 317 317 316 315 314 314 313 312 311 311 311 311 310 309 309 308 309 309 308 308 308 308 307 307 308 308
308 309 310 310 310 310 309 310 309 309 310 309 309 309 310 311 311 312 312 313 314 314 314 314 315 317 321 324 324 323 326 326 327 326 326 326 326 325 325 324 325 326 325 325 324 324 324 324 324 323 323 323 323 321 320 319 319 318 317 316 316 316 315 315 314 313 312 312 312 311 310 309 309 308 308 307 308 308 308 308 308 308 308 309 308
308 309 308 308 309 309 309 309 309 308 308 308 308 308 308 309 308 309 310 311 312 312 311 311 313 314 314 314 316 318 321 324 326 325 325 326 326 326 326 326 326 326 326 325 324 324 323 323 323 323 323 324 323 321 320 319 319 318 318 317 316 315 314 314 314 313 312 312 311 309 309 308 307 308 308 308 306 304 304 304 304 305 306 306 306
306 307 308 308 307 308 308 308 308 308 308 308 307 308 310 310 309 309 310 309 311 310 309 309 310 310 311 312 314 315 316 317 317 319 322 324 325 323 323 323 322 325 326 325 325 324 324 323 323 324 323 323 322 321 319 320 319 318 318 317 316 315 314 313 312 312 311 310 309 308 308 308 308 308 298 300 299 299 298 297 299 301 301 302 302
305 306 306 306 307 307 307 307 306 306 307 306 307 307 307 308 308 308 309 309 310 310 309 309 308 309 310 310 310 311 311 313 315 316 317 319 321 323 325 324 323 323 323 324 324 324 323 323 323 323 322 323 321 321 316 308 309 317 317 316 316 315 313 313 312 311 309 309 308 308 308 306 304 302 299 296 294 295 297 299 299 300 300 300 301
305 305 305 306 306 306 306 306 307 306 306 306 306 306 306 307 307 307 308 308 308 308 309 309 309 309 310 310 310 311 312 311 311 312 314 316 317 319 321 322 322 322 323 323 323 323 323 323 323 322 322 321 322 321 305 300 302 305 315 316 315 314 313 312 310 308 307 307 307 307 308 308 304 302 302 295 295 294 293 294 294 296 298 300 299
304 304 305 305 305 305 305 305 306 306 306 306 306 306 307 306 307 306 307 307 309 309 309 309 309 309 310 309 310 310 309 310 311 311 312 312 314 315 317 320 321 321 321 322 322 322 321 321 322 321 322 321 319 307 297 298 299 299 305 315 314 312 311 309 307 306 306 306 306 306 306 307 306 305 305 306 300 295 293 293 292 293 293 292 294
303 303 303 304 304 305 306 305 305 305 304 305 305 306 307 307 306 307 307 307 307 307 307 308 308 308 308 309 309 310 310 310 310 311 313 314 313 313 314 316 318 320 321 320 320 320 321 321 321 321 320 319 319 297 297 296 296 297 299 307 311 310 308 307 306 306 305 305 305 304 304 305 304 308 303 303 304 305 297 293 294 294 293 293 291
303 303 303 304 305 305 306 306 306 307 306 306 308 307 308 309 308 307 307 307 306 307 307 307 308 308 308 309 309 309 309 310 311 312 312 312 312 313 314 315 316 317 318 318 319 320 320 320 321 320 320 319 319 297 295 295 295 294 295 302 310 308 307 306 305 305 305 305 305 304 303 303 303 304 304 304 304 304 305 305 304 303 303 300 293
303 303 304 305 305 305 306 306 306 306 306 307 307 307 308 307 308 307 307 307 307 307 307 308 308 308 308 309 309 310 309 310 310 310 311 312 312 313 314 315 315 316 316 316 317 317 318 319 319 319 319 320 312 294 294 294 293 294 294 299 308 306 305 305 305 305 305 305 304 304 303 302 303 303 304 303 304 303 303 302 301 301 302 302 303
302 303 304 305 305 304 305 306 306 305 305 305 305 307 307 307 307 307 307 307 307 306 307 308 308 308 309 309 310 310 310 310 310 310 311 311 312 313 314 314 314 314 316 316 316 317 317 318 319 319 319 315 302 292 292 293 293 292 293 305 304 304 303 303 304 305 305 305 304 304 303 302 303 303 296 290 295 301 301 300 299 299 300 301 302
303 303 304 305 305 305 306 306 306 306 305 306 306 306 307 307 306 307 306 306 306 306 306 307 306 307 307 309 310 310 310 311 311 310 310 310 311 312 313 314 314 314 314 314 315 316 316 317 317 317 316 304 300 293 291 291 291 291 296 303 303 303 303 303 304 305 304 304 304 303 303 302 302 303 294 290 289 293 299 298 298 298 298 299 299
303 303 303 305 305 305 304 304 304 304 305 306 307 306 306 305 305 305 305 305 305 305 305 306 306 307 308 308 309 309 309 309 310 310 310 312 312 313 313 315 314 313 313 314 314 314 315 316 315 316 309 303 299 294 290 290 290 291 295 302 303 303 303 303 303 303 303 302 303 304 303 301 300 301 290 289 288 295 298 297 297 296 296 296 297
302 302 303 303 304 304 303 303 304 304 306 307 306 305 304 304 305 305 305 304 305 305 306 306 306 307 307 308 309 309 309 309 309 310 311 311 312 312 313 314 314 314 314 314 313 313 314 315 314 309 300 300 298 293 290 289 290 289 296 301 300 300 300 300 300 299 301 301 301 302 299 299 300 299 289 290 289 293 296 296 296 295 294 294 295
302 303 303 303 302 302 302 303 303 304 306 305 306 305 305 304 304 305 305 305 305 306 307 307 307 308 308 308 309 309 310 310 310 311 311 311 312 312 313 313 314 313 312 313 313 313 312 309 306 304 300 298 295 294 293 289 290 289 289 298 299 298 296 296 297 297 298 299 298 299 299 293 292 292 291 289 289 289 294 295 295 294 293 292 295
300 300 299 300 300 300 300 302 303 304 305 305 305 305 304 304 305 305 305 306 307 307 307 307 307 307 308 308 308 309 309 310 311 310 311 311 312 312 312 312 311 312 312 311 312 308 306 304 302 300 298 296 295 294 293 290 290 290 288 292 296 295 296 296 296 295 295 295 296 298 300 291 289 289 289 288 289 288 289 293 294 293 294 294 291
301 300 300 301 301 301 301 301 302 303 303 304 304 303 303 303 303 303 305 306 307 307 307 307 307 307 308 308 309 310 311 311 311 311 310 310 311 311 311 312 311 311 311 311 307 306 305 301 299 297 296 295 295 294 292 290 289 290 289 288 294 296 295 294 292 293 294 296 298 298 300 291 288 288 288 288 288 288 288 291 292 290 289 288 291
299 299 299 299 298 299 301 302 302 303 303 303 303 302 302 302 302 303 305 306 306 307 307 307 306 306 307 308 309 309 309 311 311 311 309 308 309 310 310 311 311 311 310 309 305 303 302 299 297 297 296 296 295 294 292 292 289 289 289 289 288 292 290 294 293 294 296 297 299 299 298 290 289 288 288 288 288 288 289 291 288 288 288 287 288
298 297 297 298 298 299 300 301 302 302 303 303 303 302 301 301 302 304 305 305 306 306 306 306 307 307 308 308 308 309 309 310 309 308 308 308 308 308 309 310 310 308 307 305 303 301 299 298 296 296 296 296 295 294 292 291 291 289 289 289 288 288 289 293 295 295 296 297 298 300 297 290 289 289 288 288 289 289 290 288 288 288 288 288 290
298 298 299 299 298 299 299 300 301 302 303 303 303 302 302 302 303 305 304 305 305 305 305 305 305 306 306 307 307 307 308 308 308 308 307 307 307 308 307 308 307 305 304 302 299 298 297 296 295 294 295 295 295 295 295 293 290 289 289 288 288 288 288 288 294 297 297 298 293 290 289 289 289 288 288 288 289 288 287 287 287 287 289 291 291
299 299 299 299 299 299 299 299 300 301 302 303 303 303 302 303 304 304 305 305 305 304 304 304 304 305 305 305 305 306 307 307 307 307 307 308 308 307 306 306 304 303 302 299 297 296 296 295 294 295 295 295 295 295 294 294 293 292 290 288 288 288 289 288 291 295 292 290 289 289 288 288 288 290 292 294 293 293 290 289 288 288 292 291 291
298 299 299 299 299 299 299 300 300 301 302 302 303 303 303 303 304 304 305 305 304 303 302 303 303 303 304 304 304 304 305 306 307 307 308 308 306 306 305 302 302 301 299 298 297 296 295 294 294 294 294 294 295 295 295 296 295 297 297 296 292 293 289 288 292 296 294 297 295 293 292 290 290 289 289 288 289 290 291 292 292 292 293 292 292
298 299 299 299 299 299 299 299 299 300 301 302 302 302 303 304 304 304 304 303 302 302 302 302 302 303 303 304 304 296 300 304 305 305 305 305 304 304 302 300 299 299 298 297 296 295 293 294 294 294 293 293 293 294 295 295 295 295 295 296 297 297 298 297 296 294 293 292 292 290 291 295 296 295 295 294 293 293 292 291 292 292 292 292 291
297 298 298 298 299 299 300 300 299 301 301 302 302 304 305 306 306 305 304 302 301 301 301 302 302 302 302 302 302 303 304 303 303 302 301 301 301 299 297 297 299 298 297 295 295 294 294 294 293 293 293 294 295 292 292 289 290 288 290 294 295 294 294 294 291 287 290 291 292 292 292 292 292 290 290 290 291 291 290 291 291 291 291 291 291
298 299 300 300 300 300 300 300 301 303 302 303 303 304 305 306 305 304 303 301 300 300 300 300 301 301 301 301 301 302 302 300 299 296 293 291 288 291 296 298 295 289 289 290 292 295 297 296 295 295 296 295 292 291 287 287 288 288 287 286 287 287 287 289 288 287 288 289 290 290 291 291 290 290 289 289 289 289 288 288 289 288 290 289 289
298 298 299 299 300 301 301 301 302 302 303 303 304 304 305 304 303 303 302 301 300 298 298 299 299 299 299 300 300 299 299 297 296 295 294 292 291 290 287 288 289 289 290 289 289 289 289 290 294 292 289 287 287 287 287 287 287 287 287 287 287 287 287 287 287 288 289 290 289 289 290 290 289 290 289 288 288 288 288 288 288 288 289 289 288
Wind_Speed
10 13 15 14 13 12 10 11 10 10 10 11 11 10 10 9 9 9 8 7 6 6 5 5 4 4 3 2 3 2 4 3 2 3 4 4 4 3 1 2 3 3 3 1 2 3 4 4 3 2 2 4 7 6 6 6 3 4 5 4 6 5 6 7 4 2 3 2 2 5 5 5 7 8 6 6 7 6 6 7 6 6 6 6 6
10 10 14 14 13 13 10 10 11 12 11 11 11 11 10 10 9 9 8 8 7 6 5 4 3 3 4 4 3 4 5 4 4 4 4 3 3 3 2 2 2 2 1 3 3 3 3 2 3 3 3 1 2 6 6 4 1 4 5 3 4 6 4 5 4 3 5 4 2 3 5 1 2 5 8 6 5 7 7 5 5 6 7 6 5
15 14 14 14 15 14 11 10 10 11 12 11 11 11 11 10 9 9 8 8 7 5 5 4 2 3 2 5 3 5 5 4 4 4 4 4 3 2 2 2 1 1 0 0 2 1 0 3 2 1 2 2 4 3 4 3 5 6 3 3 2 3 4 3 4 5 3 2 1 1 1 2 0 3 4 6 6 3 6 7 7 7 8 8 6
12 12 13 14 14 14 12 11 10 11 11 11 11 12 10 9 10 9 9 8 7 6 5 5 4 4 4 4 4 4 6 5 5 4 4 4 4 2 3 2 1 0 0 1 1 3 3 1 2 3 2 4 3 2 3 4 2 4 1 5 5 4 4 3 3 3 1 1 3 5 2 2 2 3 3 2 1 3 1 4 10 10 7 9 7
8 11 13 15 15 15 14 13 11 11 11 12 12 11 8 11 10 10 9 8 8 8 6 6 6 5 5 6 6 6 6 5 5 5 4 4 3 3 3 2 1 3 3 3 3 2 2 3 3 2 4 3 3 2 1 3 1 4 2 5 2 2 3 2 0 1 3 3 3 1 2 2 3 1 2 1 1 1 2 1 4 4 6 8 8
14 11 12 14 15 14 14 14 14 12 12 11 11 11 11 11 11 11 9 8 9 10 8 7 6 6 6 6 6 6 6 5 5 5 4 3 4 3 3 2 3 2 2 3 4 4 3 0 2 3 2 2 3 3 3 2 2 3 1 3 3 2 1 1 1 3 3 3 2 2 3 1 0 1 1 1 2 1 2 2 2 0 2 5 5
7 12 14 14 13 14 14 14 15 14 12 11 11 12 12 11 11 11 10 9 9 10 10 7 7 6 7 6 6 6 6 4 5 4 4 4 4 3 4 2 2 3 3 3 3 3 4 4 3 4 4 3 2 3 4 4 4 5 5 4 2 2 2 3 3 3 5 4 2 3 3 1 1 1 1 2 1 1 1 1 2 5 5 2 5
12 12 13 12 12 13 15 14 14 14 13 12 12 12 13 13 12 12 10 10 9 10 10 8 8 7 7 7 6 5 6 6 6 5 4 4 5 4 4 3 2 3 2 3 3 3 3 3 3 3 2 3 2 4 4 4 4 4 3 3 3 4 4 1 2 2 2 3 2 3 4 2 2 1 2 3 3 3 2 1 1 5 5 5 3
4 6 8 10 11 13 13 14 14 14 14 13 12 12 12 12 12 12 11 11 11 12 11 10 8 8 8 7 7 5 7 6 6 5 5 5 5 4 3 4 3 2 3 3 3 5 3 4 3 4 4 4 3 4 4 5 5 4 4 4 4 4 4 3 3 3 2 3 2 0 1 3 2 1 3 1 2 4 2 1 3 1 1 4 3
4 5 4 5 8 10 12 12 13 13 13 13 13 12 13 12 13 14 12 11 11 13 11 11 10 9 8 7 8 7 7 7 6 6 5 5 5 5 4 3 4 3 3 3 4 4 4 3 3 3 3 5 5 5 4 4 4 4 4 4 4 3 3 4 4 4 3 4 4 3 3 0 3 6 5 4 4 8 6 3 3 2 2 2 1
2 1 2 3 5 6 8 12 13 13 12 14 13 13 13 13 14 15 13 11 12 13 13 12 10 9 8 9 9 8 8 8 7 7 6 6 5 5 4 4 3 4 3 4 3 4 3 3 3 3 3 3 3 3 4 4 3 4 3 4 5 4 4 3 3 3 3 3 3 3 3 2 3 4 2 3 3 4 4 5 6 7 6 4 5
3 2 1 2 1 6 8 11 13 13 13 13 12 13 14 14 14 15 14 13 13 12 13 12 10 9 9 9 10 9 9 7 8 8 7 7 6 5 5 5 4 4 3 4 3 4 3 3 2 2 3 2 3 3 2 3 3 3 4 3 4 4 3 3 3 3 2 2 2 3 3 3 2 2 3 2 3 4 4 5 4 5 4 4 3
4 3 2 2 1 4 8 10 11 13 13 13 13 12 13 14 15 16 15 14 13 13 13 12 11 10 9 9 9 8 9 8 8 8 7 7 6 6 5 5 5 5 4 4 4 4 3 3 2 2 2 2 2 3 3 4 3 3 4 4 4 5 5 5 4 5 5 5 3 2 2 2 2 2 2 2 2 2 3 4 5 5 5 4 5
5 5 6 4 3 0 4 7 9 11 12 12 12 12 12 12 15 16 15 14 13 13 13 13 12 11 10 9 9 8 9 8 7 7 7 6 6 6 5 5 5 5 5 5 5 5 3 3 2 3 2 2 2 2 2 2 1 2 3 4 3 4 4 4 4 4 4 4 3 3 4 3 4 2 2 1 1 3 3 4 5 5 5 6 5
7 7 6 6 4 2 1 4 7 9 10 11 11 11 12 12 13 15 15 14 13 13 12 12 11 11 10 9 9 8 8 8 7 7 7 7 6 7 6 5 5 6 6 5 6 5 4 4 3 3 3 3 2 2 2 1 1 1 3 3 3 3 3 4 4 4 3 4 4 3 1 2 4 4 3 3 2 1 3 4 5 5 5 5 5
7 7 6 6 5 3 1 3 5 6 8 9 11 10 10 10 12 13 13 13 12 12 11 12 11 9 10 10 9 9 8 8 7 7 7 7 7 6 7 6 5 5 6 6 7 6 5 5 5 4 5 4 4 3 2 2 1 1 3 2 2 2 2 2 2 3 3 3 3 3 2 4 3 3 4 3 4 4 2 1 1 3 5 5 5
8 8 7 6 6 4 3 2 3 4 5 7 8 9 9 8 10 12 12 11 12 11 11 11 11 10 11 10 9 9 8 9 8 8 7 8 7 7 7 7 6 5 6 7 7 7 6 6 5 5 5 5 4 4 3 2 3 2 2 3 3 3 2 2 1 2 2 0 2 2 2 1 3 2 2 4 3 3 4 3 2 2 3 4 5
9 9 9 8 7 6 4 3 4 4 6 6 8 7 8 7 8 10 11 11 11 10 10 9 10 10 10 10 10 9 8 8 7 7 8 7 8 7 7 7 7 6 6 7 8 8 7 8 6 6 6 5 5 5 4 4 3 3 3 3 3 3 2 2 2 1 1 1 1 2 3 1 3 2 3 2 3 3 3 4 4 3 2 3 4
9 9 9 8 8 7 6 5 5 5 6 6 7 6 6 6 7 8 10 9 9 8 8 7 8 6 7 8 10 9 9 8 8 8 7 7 8 8 8 7 8 8 8 8 9 9 8 8 7 7 7 7 6 5 5 4 4 3 3 3 3 3 3 3 2 2 1 1 1 1 1 1 1 1 2 1 2 2 3 4 4 4 4 4 4
9 10 10 9 9 8 7 6 6 6 7 7 6 6 7 6 6 5 6 6 7 7 6 6 6 6 6 6 8 8 9 9 8 8 8 8 8 8 8 8 8 8 8 10 10 10 10 10 9 8 8 8 8 7 7 6 5 4 4 4 4 4 4 3 3 3 2 2 2 2 1 2 2 3 2 2 2 2 2 3 4 4 4 4 4
9 10 10 10 9 9 8 7 7 7 7 6 6 6 7 7 6 5 5 5 5 4 4 2 3 5 5 6 7 7 8 8 8 8 8 8 8 8 8 7 8 8 8 9 10 11 11 11 11 10 10 9 9 9 8 7 6 6 5 5 5 5 5 4 4 4 2 2 3 1 2 3 1 2 2 3 3 3 4 4 4 4 4 4 5
9 9 10 10 10 10 9 8 7 7 8 8 7 6 8 8 7 6 4 4 3 4 6 4 2 4 5 6 7 7 8 8 8 8 9 8 8 8 7 8 8 9 9 10 11 10 10 12 11 11 11 11 11 10 9 8 8 7 7 5 5 6 6 5 4 4 4 3 2 3 2 0 1 3 3 5 4 4 4 5 4 4 5 4 4
8 9 9 9 9 10 11 11 11 10 9 9 8 6 6 8 9 7 6 4 3 1 1 3 3 3 3 3 5 5 5 8 9 9 9 9 9 9 8 8 8 8 9 9 10 11 11 12 12 11 12 11 11 11 9 9 8 8 8 7 7 7 7 6 6 5 6 5 4 4 4 2 2 3 3 4 4 5 4 5 5 5 6 6 6
8 7 7 7 8 8 9 10 10 10 10 10 9 9 10 11 9 6 5 4 5 7 6 5 4 5 5 5 4 5 7 9 9 6 8 9 10 10 10 9 9 9 9 10 10 11 11 11 12 12 12 11 12 10 10 10 10 10 9 9 9 8 8 7 7 7 6 5 5 4 4 3 3 4 4 4 4 4 4 5 6 6 6 6 6
8 8 8 7 7 7 8 8 9 9 10 9 10 10 10 9 8 9 8 5 4 3 1 1 3 5 6 7 6 8 9 9 9 8 9 7 8 9 9 11 11 11 12 11 11 11 11 12 11 12 12 12 11 11 11 11 10 9 10 9 9 9 9 8 8 7 6 5 5 4 4 3 2 3 4 4 4 4 5 6 6 6 7 6 6
7 7 7 7 7 7 7 7 7 8 8 9 9 9 9 8 8 7 7 6 5 5 5 4 2 0 0 3 6 8 8 9 9 8 5 6 7 8 7 8 10 11 12 12 11 11 11 14 13 13 13 12 11 11 11 11 11 11 11 10 10 10 9 9 8 8 7 6 5 4 3 4 4 3 4 4 4 6 6 6 7 7 8 8 8
7 7 7 7 7 8 7 7 7 7 7 7 7 8 7 7 7 7 7 6 6 5 4 4 4 3 2 3 5 7 8 6 5 6 7 9 10 11 12 12 10 12 11 11 11 11 10 12 13 13 13 13 12 12 12 12 12 12 12 11 10 9 8 7 7 7 7 6 6 5 4 3 4 4 3 4 4 5 5 7 7 7 7 8 8
5 6 7 8 8 7 7 7 6 6 6 6 7 7 6 6 6 6 6 6 4 5 5 4 4 2 1 1 2 3 2 3 5 7 8 10 6 7 8 8 9 11 12 11 11 11 11 11 12 10 13 9 11 13 11 12 12 11 11 10 10 9 8 8 7 7 6 6 5 4 5 4 4 4 3 2 3 5 6 7 7 7 7 8 9
6 5 6 7 7 6 6 6 6 6 6 5 5 7 6 5 6 5 5 5 4 4 4 4 3 3 4 4 3 3 2 3 4 4 6 7 8 9 11 6 8 10 5 8 11 11 11 13 13 12 12 13 12 9 11 12 13 12 10 10 10 9 9 8 8 7 6 6 5 5 5 5 1 6 5 2 2 3 6 8 8 7 8 8 9
7 7 7 6 7 7 7 6 5 4 5 5 4 4 5 5 5 4 3 4 3 3 3 3 3 2 2 4 5 5 5 5 5 5 6 6 5 6 8 9 10 8 10 11 11 12 11 12 13 12 11 8 8 10 10 11 11 11 11 9 8 8 9 8 7 7 6 6 5 5 4 3 4 5 6 8 10 10 9 8 8 8 8 9 9
6 5 6 6 7 6 6 5 5 5 4 4 4 4 3 3 3 3 3 4 4 4 3 3 3 3 4 4 5 5 4 6 6 6 6 7 8 6 6 6 7 9 9 11 9 10 11 12 9 8 9 8 6 8 6 10 8 7 9 8 8 8 8 7 6 6 5 6 5 6 5 7 10 10 11 13 12 12 13 12 12 12 10 9 9
7 5 5 6 6 5 5 4 4 3 4 4 3 0 3 3 3 3 3 3 3 3 3 3 4 4 4 5 5 6 6 6 6 6 7 7 7 8 7 7 7 8 8 9 10 10 11 11 10 12 8 7 9 6 11 11 10 7 5 7 7 7 6 6 6 5 5 5 5 4 4 4 5 6 7 7 11 14 14 14 14 14 14 15 13
8 6 4 4 4 5 5 2 2 3 2 4 3 2 2 2 1 0 1 1 3 3 4 4 4 5 5 5 5 6 6 6 7 7 6 6 7 8 9 8 9 9 9 9 10 10 10 11 11 9 10 9 8 12 13 12 10 10 9 8 7 7 7 6 6 6 5 4 3 4 4 4 5 5 6 9 9 8 14 17 16 16 16 15 15
4 5 4 2 2 3 4 3 1 2 3 3 2 2 1 1 2 3 3 4 5 5 4 5 5 6 6 5 6 6 6 6 6 7 7 7 8 9 8 8 8 8 9 10 10 11 11 11 12 11 11 11 6 12 14 13 12 11 10 7 6 7 6 6 6 6 5 5 5 5 5 6 6 6 6 7 8 8 8 6 8 9 10 14 18
5 3 3 1 0 1 2 1 1 3 2 2 2 1 2 3 2 3 4 4 5 5 6 6 6 7 6 6 6 6 7 7 7 7 7 8 8 8 8 8 8 9 9 9 10 10 11 11 11 11 10 11 5 14 16 15 13 12 9 4 5 6 4 4 4 5 5 5 5 5 6 7 7 7 6 4 5 8 8 8 9 10 11 12 10
4 3 4 5 3 1 0 1 2 3 2 3 3 3 3 4 4 5 5 5 5 6 6 6 6 6 7 6 6 6 7 7 8 8 8 8 8 8 9 8 9 9 9 9 9 9 10 11 11 10 11 5 8 13 14 15 14 11 9 5 5 5 4 4 5 5 6 5 6 6 6 7 6 8 7 9 7 4 8 9 10 11 11 11 11
4 5 5 4 4 3 1 1 2 3 4 4 4 4 4 5 6 6 6 6 7 7 7 7 7 7 7 6 6 7 7 8 8 8 9 9 9 9 9 8 9 9 9 9 9 9 9 9 10 10 5 8 8 9 13 13 12 11 7 5 5 5 5 6 6 5 5 6 6 7 7 6 6 6 8 9 7 1 7 10 11 11 11 11 11
7 5 6 8 4 3 3 2 4 4 5 5 4 4 5 6 7 7 7 8 8 8 8 9 9 9 8 7 7 8 8 8 8 9 9 8 8 8 8 7 9 9 9 10 9 9 8 8 8 8 8 10 9 8 12 12 11 8 1 3 5 5 5 5 4 5 6 6 7 4 5 8 9 7 9 9 9 3 8 9 10 11 12 12 12
5 6 7 6 5 5 6 6 5 5 4 4 6 7 7 7 7 7 8 9 9 9 9 10 10 9 10 9 9 9 8 9 9 9 8 9 9 8 8 7 8 9 9 9 9 9 6 4 1 9 13 12 10 9 9 10 8 5 1 1 2 3 2 3 4 4 4 5 6 6 12 11 10 9 10 9 8 4 8 9 10 11 13 14 12
8 7 6 5 6 8 8 6 6 6 6 7 7 7 7 8 8 8 8 9 9 10 10 11 11 10 10 10 9 9 9 9 9 9 8 8 8 8 8 8 8 8 8 8 8 8 5 6 7 9 8 10 11 8 7 7 6 5 7 5 1 0 2 3 4 5 5 5 6 8 8 16 16 7 4 6 3 2 6 9 10 11 12 15 12
8 7 5 7 9 8 8 8 7 8 7 6 7 7 8 8 8 8 10 9 9 10 11 11 11 11 12 12 10 10 10 9 10 9 8 8 8 8 8 9 9 8 8 7 2 8 9 8 8 8 9 9 7 9 7 8 6 6 5 5 2 1 2 3 3 4 5 6 7 7 4 10 8 9 9 9 7 4 5 8 10 11 13 12 13
10 10 8 8 8 8 9 10 9 8 8 8 8 8 9 9 9 10 10 10 11 11 11 11 12 12 12 12 11 10 10 9 9 8 9 9 8 9 9 9 8 9 7 1 7 4 7 8 8 9 9 9 8 8 6 5 6 4 3 3 1 2 4 4 4 5 7 7 7 7 2 9 11 6 4 5 7 8 9 9 11 14 15 16 14
10 11 11 10 10 10 9 9 9 9 8 8 9 10 10 10 11 12 10 10 11 11 12 13 13 13 12 12 12 12 11 8 8 9 10 10 9 9 9 9 7 6 6 4 5 6 7 9 9 9 8 8 8 8 9 7 6 6 5 3 3 3 3 2 5 6 7 7 7 8 4 8 3 2 4 6 7 9 10 10 11 11 12 13 12
11 11 12 12 12 11 11 11 10 10 9 9 10 11 11 12 13 11 11 11 12 12 12 12 11 11 12 11 12 12 11 10 11 11 11 12 11 10 9 7 6 5 4 6 6 6 8 9 9 9 8 8 8 7 7 8 7 8 7 7 7 5 5 4 5 7 7 7 8 6 7 15 13 15 13 12 12 13 12 14 16 17 18 16 10
13 13 12 12 13 13 12 12 10 11 10 10 10 12 13 14 13 12 12 13 13 13 13 12 13 12 12 12 12 12 13 12 12 12 11 10 12 11 8 5 6 4 6 7 7 8 8 8 9 9 9 8 7 7 6 8 11 11 11 11 10 10 10 9 6 6 7 7 8 9 10 10 9 9 13 14 13 14 18 19 19 18 15 10 11
15 16 15 14 14 14 14 14 13 12 11 10 11 12 14 13 13 12 12 13 13 13 13 14 13 13 14 13 14 13 13 14 12 10 11 9 9 8 6 5 6 7 8 9 8 9 9 9 8 8 8 7 7 7 7 6 7 8 9 10 13 13 11 11 12 9 10 12 13 14 14 13 13 13 11 9 10 11 10 11 12 12 9 10 10
17 15 14 14 14 13 13 14 14 12 12 11 12 12 13 13 13 12 13 13 14 15 15 15 16 14 15 14 15 13 13 12 12 10 8 5 4 3 5 6 7 9 10 10 10 10 10 9 8 7 7 7 7 6 7 7 7 6 6 8 9 9 13 12 9 7 8 7 7 7 9 12 15 18 17 16 14 13 11 11 9 9 9 9 10
17 16 14 15 14 14 14 14 13 12 12 13 13 14 13 13 13 12 12 13 14 13 15 16 16 15 14 14 14 11 9 10 9 6 4 4 4 5 5 5 6 7 10 12 11 9 8 8 8 7 7 6 6 5 5 5 4 5 5 5 3 5 5 5 6 8 9 10 10 10 10 9 8 7 7 6 7 8 9 10 10 10 10 10 11
16 16 14 14 14 15 14 15 14 13 12 12 13 12 12 12 11 10 9 11 12 15 15 17 16 15 15 13 12 10 8 7 5 6 4 4 6 7 7 7 6 5 5 6 5 6 7 6 7 7 7 7 6 7 5 6 7 6 3 4 4 5 6 5 6 7 8 8 7 7 5 7 7 7 7 7 9 9 8 9 11 11 10 10 10
15 13 14 15 15 15 15 14 12 11 12 12 12 11 10 8 8 9 11 11 13 14 15 15 14 13 12 11 8 4 5 7 8 8 7 7 12 12 7 6 5 8 12 10 7 5 5 7 7 6 5 7 6 5 7 9 7 4 4 1 2 3 2 5 7 9 8 6 5 6 6 7 7 7 8 8 9 8 9 9 9 10 10 11 11
15 15 16 16 15 14 14 13 12 12 12 11 11 10 7 6 7 8 9 10 11 11 10 9 7 5 4 3 5 7 7 8 9 9 9 9 8 10 15 13 11 10 13 15 15 17 17 13 9 8 9 15 14 11 9 7 4 3 0 2 5 6 6 7 8 5 4 4 5 7 8 7 8 8 8 9 9 9 9 10 10 10 10 9 9
Wind_Direction
198 167 162 162 160 159 157 157 158 159 164 160 161 159 156 157 152 156 153 155 162 166 173 170 164 156 150 137 117 165 113 112 94 59 65 60 37 68 54 51 13 354 333 326 297 337 300 316 334 338 292 170 189 191 220 230 216 263 257 236 256 278 259 307 317 218 205 209 297 272 272 284 292 291 289 310 281 256 241 240 245 254 236 217 225
183 185 168 165 161 162 164 164 165 167 170 170 168 164 162 158 157 154 155 163 170 174 159 174 171 159 167 151 148 147 143 161 127 108 77 81 72 53 42 29 30 328 336 333 337 273 323 269 295 21 337 81 128 187 185 170 62 279 267 247 228 242 260 241 243 275 240 230 193 245 264 241 254 307 299 279 281 284 259 242 251 251 256 251 228
185 189 178 171 166 167 170 172 173 176 170 175 173 168 167 164 161 158 160 163 164 170 164 164 156 94 190 122 160 103 62 58 87 90 108 106 91 85 48 60 296 100 1 212 258 270 257 345 357 344 40 63 71 48 119 175 220 219 213 237 248 248 269 245 219 216 250 254 201 35 266 293 178 283 251 251 269 302 327 288 247 232 244 250 241
171 182 184 180 171 172 175 174 178 178 173 177 178 177 172 172 164 162 159 165 158 162 170 135 126 124 88 126 91 109 117 105 107 115 107 123 113 54 72 11 18 49 193 204 30 51 353 343 0 2 11 13 8 86 89 81 86 89 239 230 228 232 236 243 244 234 189 192 239 234 179 165 313 249 270 322 305 32 358 356 344 308 279 250 238
179 196 194 192 181 178 180 180 176 183 180 179 179 180 175 174 167 164 161 164 159 155 163 136 133 138 127 116 107 103 126 144 148 134 133 114 112 120 106 85 45 42 38 34 75 73 6 1 16 343 8 360 340 3 24 33 95 128 120 101 165 241 282 250 112 185 239 246 267 189 176 212 252 49 48 236 297 310 248 215 205 293 344 343 306
184 210 206 207 192 183 183 180 183 185 183 181 177 180 175 173 169 165 161 163 157 156 156 152 158 157 156 154 150 158 149 157 155 142 142 149 95 92 118 122 69 61 65 54 34 48 79 23 338 329 58 352 4 15 27 93 30 3 35 104 130 178 164 30 82 53 85 44 42 331 353 321 204 64 84 204 27 7 343 308 310 225 339 337 341
220 202 220 206 200 196 188 187 186 185 185 178 176 179 177 174 170 169 163 162 157 158 158 161 164 168 174 169 162 164 152 147 122 131 126 104 116 113 93 93 92 76 60 68 68 39 30 35 20 6 32 33 36 16 44 6 33 22 345 17 359 142 99 118 130 199 167 168 195 91 55 12 25 119 261 20 306 104 102 339 353 327 328 351 328
202 219 208 213 207 204 200 194 190 187 181 179 177 178 178 177 171 171 165 162 159 159 163 169 171 171 179 176 163 168 153 132 135 134 113 122 120 134 128 128 141 102 95 87 104 70 65 54 45 34 15 48 44 70 55 42 41 68 30 13 31 11 346 55 124 93 352 84 135 139 150 208 320 340 39 359 338 334 340 55 36 352 343 317 297
206 207 211 214 212 206 204 199 196 189 184 183 178 177 176 176 172 172 168 163 160 162 165 172 179 172 183 174 168 165 139 143 150 142 139 132 143 145 139 121 117 112 84 89 72 90 91 75 48 39 19 11 45 83 62 55 49 36 40 46 30 32 24 18 330 51 11 31 337 35 163 146 152 352 67 111 112 305 311 342 351 30 280 288 307
214 216 225 225 225 219 203 200 195 194 188 182 176 175 176 175 174 174 171 167 162 165 169 173 181 174 184 178 173 162 152 155 162 147 146 153 148 145 138 147 129 130 128 112 115 112 99 98 76 56 33 27 30 50 60 70 49 56 49 42 34 61 45 25 24 25 24 31 351 5 313 6 201 172 179 200 188 183 246 290 258 235 299 269 208
259 254 206 211 225 241 221 203 195 192 188 183 178 178 177 176 175 177 173 170 164 168 170 172 181 180 185 180 176 165 161 160 158 159 159 169 157 161 167 146 143 127 133 137 125 116 113 89 79 66 52 34 42 43 41 53 69 74 72 54 49 37 51 55 48 31 20 46 355 9 11 14 3 346 348 10 353 317 301 239 214 200 196 223 210
308 313 43 61 237 226 223 212 194 190 191 188 180 178 178 177 176 176 174 173 167 170 172 173 179 184 185 180 177 170 167 168 163 170 166 177 167 171 170 155 154 143 151 147 148 132 134 112 102 91 66 55 44 40 46 79 74 71 53 54 67 63 58 52 48 54 21 72 31 15 24 19 5 346 24 358 333 326 325 311 301 308 266 248 183
344 26 44 47 305 231 218 210 197 190 190 192 184 181 179 178 177 177 175 175 169 171 174 176 180 182 185 180 181 173 175 177 173 172 171 179 176 183 173 173 161 165 169 163 158 160 151 145 160 129 109 59 37 50 51 37 53 57 58 70 54 49 49 36 47 35 27 16 42 22 349 29 74 49 356 341 329 304 283 293 300 303 294 301 297
17 30 36 34 15 225 203 203 196 199 202 205 194 183 180 179 180 180 176 175 169 173 175 178 182 182 183 184 182 179 180 178 187 177 180 186 180 181 189 184 173 174 172 181 160 182 172 160 165 119 103 102 89 73 54 54 33 94 98 74 79 72 67 70 68 56 42 27 1 34 13 32 27 19 4 289 344 317 309 321 322 309 308 293 285
34 41 34 38 44 26 167 194 206 209 209 211 206 189 182 180 183 182 177 176 173 173 176 180 181 183 183 187 186 189 185 185 193 186 180 192 189 178 193 190 184 179 175 182 160 188 177 169 167 153 154 148 135 132 134 114 345 48 87 72 66 67 61 48 58 39 48 37 24 16 42 50 359 25 346 355 342 16 347 347 331 319 308 287 277
49 52 56 57 53 53 90 201 201 204 203 208 206 200 188 183 182 183 181 176 176 173 178 181 181 183 187 190 193 197 192 193 198 195 184 192 191 186 188 192 197 179 176 177 167 188 182 183 175 177 168 167 169 164 185 161 145 148 107 101 91 82 88 95 104 98 64 37 32 358 341 43 12 18 335 43 352 356 325 214 290 312 317 315 324
54 60 63 71 81 82 98 139 150 189 197 198 201 196 190 181 179 180 183 177 179 176 179 179 181 185 188 193 197 200 203 204 202 198 196 185 195 192 190 190 197 187 180 176 173 190 185 189 190 180 181 180 178 181 191 166 177 201 134 148 144 133 153 99 49 70 89 101 63 11 3 77 54 351 15 357 359 337 325 323 268 280 318 305 311
63 68 64 56 55 65 82 99 122 150 161 168 179 183 178 183 175 175 182 177 179 177 181 180 185 189 188 194 199 202 207 212 214 207 200 196 195 197 197 189 195 192 185 175 182 190 189 191 196 189 183 189 185 190 197 168 202 202 145 187 154 150 156 150 165 132 78 60 44 0 352 44 52 346 20 346 336 344 313 314 318 294 237 269 298
63 61 64 65 63 61 70 81 97 109 120 137 140 145 154 169 169 175 180 179 172 175 182 184 187 191 197 199 200 202 207 212 216 219 208 210 206 207 204 201 194 193 191 180 186 192 190 191 202 194 189 191 190 194 196 182 210 193 175 198 155 195 190 167 157 114 169 161 109 235 294 355 40 336 305 293 305 301 320 313 307 309 303 300 291
69 65 62 68 72 70 66 67 80 96 107 110 112 116 122 117 124 143 156 175 179 177 174 182 185 191 202 211 212 213 212 213 217 221 220 215 219 221 218 211 204 201 198 187 191 194 193 193 199 198 196 195 194 195 194 194 201 198 193 209 174 211 210 184 176 181 174 188 164 203 209 345 25 320 308 319 298 282 272 298 303 299 293 286 284
74 74 74 71 73 82 93 95 89 85 79 79 87 98 100 108 104 113 130 138 165 164 167 204 190 199 208 223 232 230 227 223 223 227 229 230 226 226 230 223 216 211 211 199 199 200 199 197 198 201 201 198 199 196 194 197 198 196 198 214 173 207 215 204 193 176 210 209 211 256 223 194 205 272 300 298 286 286 280 270 270 277 279 278 275
86 84 84 84 82 78 72 77 95 106 107 105 105 98 87 87 90 86 98 123 138 170 178 169 270 234 214 221 231 249 248 239 235 234 236 236 242 235 232 231 229 217 220 216 207 207 206 203 204 203 203 203 202 200 195 196 200 196 196 197 184 205 216 211 194 215 194 202 190 267 280 63 293 307 311 292 302 311 299 282 274 273 281 285 276
98 96 92 88 90 93 93 89 83 75 73 76 81 93 124 135 129 123 121 113 118 104 94 162 180 244 253 219 206 224 270 266 237 238 243 244 240 241 229 232 230 229 223 221 220 218 214 211 208 210 206 207 205 201 196 198 200 200 195 192 195 205 207 206 196 217 208 192 196 209 229 212 227 263 275 280 285 275 280 287 292 293 291 291 290
106 99 97 101 103 100 97 97 91 85 84 84 84 77 63 59 63 69 85 135 168 181 179 174 191 206 221 216 209 215 223 240 251 240 238 233 239 244 240 233 231 230 228 222 224 237 222 220 222 215 213 209 208 204 198 200 204 201 202 197 198 204 203 204 201 208 212 190 201 206 220 228 228 239 256 284 287 279 275 291 296 290 281 277 271
112 107 102 95 85 82 83 84 87 91 86 79 79 81 79 77 79 83 84 53 61 55 153 201 214 202 217 225 224 227 222 223 225 215 224 236 246 235 232 234 228 225 225 223 218 224 232 222 223 223 220 218 213 209 202 199 203 203 204 203 200 204 203 202 203 203 203 198 204 214 239 246 267 271 267 270 285 306 304 300 296 294 288 286 281
120 112 104 93 89 86 76 72 77 78 86 92 91 82 79 78 81 80 80 87 76 70 62 63 58 132 357 297 270 253 232 218 232 233 192 202 230 245 240 243 239 234 231 228 228 217 229 231 223 228 229 225 221 222 216 204 205 201 204 206 205 205 202 201 199 200 192 201 214 219 220 226 241 258 280 296 301 299 299 297 298 301 303 305 299
136 130 123 116 102 92 88 82 75 76 80 78 70 76 77 79 71 67 64 60 50 43 57 68 54 43 101 181 208 233 254 261 264 274 246 224 223 230 230 230 232 237 237 236 233 233 229 233 228 224 225 228 225 222 220 213 210 204 205 204 203 203 200 201 201 194 199 196 195 209 219 225 239 254 274 277 287 293 288 287 286 286 286 285 287
145 148 134 121 111 103 96 86 85 85 73 77 75 65 68 58 63 58 60 49 42 29 30 29 24 28 47 4 345 319 281 223 189 229 252 257 261 277 279 276 260 239 229 231 232 228 224 225 227 230 237 218 231 223 218 213 215 208 200 203 197 200 196 197 196 196 199 197 202 215 221 226 229 243 256 265 305 304 309 301 296 295 293 292 290
185 139 126 124 115 103 97 98 96 95 88 71 81 91 82 73 56 56 52 49 38 27 15 13 7 334 344 322 306 289 310 288 276 261 238 229 194 217 241 244 273 269 284 267 244 235 232 229 234 234 236 225 220 205 210 224 226 211 196 198 194 193 194 192 190 199 198 197 207 210 217 225 113 68 66 24 309 294 290 282 283 286 285 286 283
184 161 141 123 116 116 108 95 76 59 65 73 65 58 66 70 65 46 47 31 39 24 0 353 325 333 301 301 308 304 286 288 282 276 274 274 271 238 222 201 217 235 240 245 240 241 237 237 235 234 232 227 211 222 230 213 213 208 194 185 185 190 194 193 189 194 194 201 209 221 214 193 119 201 227 234 243 246 233 246 268 279 286 289 286
181 169 150 135 130 123 118 111 100 90 88 74 53 53 50 59 49 33 25 5 7 355 340 322 309 315 304 294 279 268 274 275 277 278 279 278 271 263 253 252 234 227 226 228 235 238 238 238 239 251 249 234 231 243 203 165 169 170 185 185 183 189 186 189 188 192 194 202 210 219 238 180 187 208 219 223 230 224 228 234 239 253 267 272 281
204 189 170 153 135 123 106 95 100 112 119 107 94 115 92 40 55 17 16 356 341 308 299 291 283 288 285 285 290 292 287 284 277 273 273 272 271 270 257 239 242 242 238 237 228 230 238 241 238 234 201 196 209 179 142 150 150 179 211 187 175 173 180 184 186 193 202 214 226 235 239 261 260 261 275 241 219 222 227 226 230 234 232 239 239
218 220 188 161 135 119 110 94 106 80 37 54 40 30 45 36 5 211 215 262 268 281 284 286 286 284 290 286 277 278 278 278 280 278 278 272 270 270 268 257 243 235 236 238 236 231 232 238 240 218 211 214 228 143 145 139 139 142 142 154 176 182 175 185 189 195 209 218 233 245 254 257 266 217 217 246 263 245 212 221 226 226 230 231 233
193 221 216 162 115 91 85 81 57 73 34 0 339 355 15 305 322 334 335 325 319 302 292 296 294 291 292 290 286 280 276 272 271 270 269 271 266 264 265 262 264 254 242 238 237 235 236 235 235 228 221 223 202 150 143 144 138 138 146 163 180 171 175 188 190 197 207 220 231 246 254 256 258 262 267 269 276 274 291 256 229 230 236 227 226
192 225 281 319 85 113 112 127 76 28 313 265 278 341 329 310 317 315 312 306 293 298 296 290 289 292 290 285 282 283 282 285 284 280 277 272 271 269 265 260 254 253 253 246 239 236 236 243 242 235 229 224 139 152 146 143 142 140 136 151 154 156 177 187 198 215 219 232 242 251 261 265 267 266 272 338 291 290 293 290 288 289 284 286 277
224 217 252 262 287 332 354 33 358 277 299 307 325 329 311 307 309 295 290 286 291 288 284 282 284 284 282 281 277 276 276 273 272 269 265 262 261 258 256 260 262 260 255 251 245 239 236 234 237 235 234 148 127 147 141 138 138 135 131 150 144 163 189 213 214 218 224 234 239 243 252 256 263 270 75 71 40 323 287 286 288 285 284 282 276
234 250 252 260 261 244 60 327 285 313 306 312 314 307 297 291 288 289 292 293 290 288 288 288 283 284 287 283 280 277 274 273 272 270 266 265 264 263 261 259 260 257 256 253 252 242 240 237 237 237 190 114 132 140 128 127 130 132 141 165 173 183 208 214 223 228 238 244 246 246 252 266 266 280 101 102 105 313 283 286 285 284 283 283 280
244 245 250 243 239 290 261 279 293 284 282 280 288 288 287 282 282 285 285 285 290 292 296 295 293 293 289 285 280 279 277 274 271 268 268 265 263 262 262 256 258 263 259 256 255 250 243 243 240 230 127 129 130 126 125 125 134 139 46 193 191 201 218 229 219 233 250 255 259 193 236 259 271 270 126 145 146 204 276 281 283 286 286 283 282
278 260 263 273 275 296 305 292 274 271 279 286 284 285 279 277 276 278 283 288 289 290 291 293 296 297 293 290 287 283 282 280 276 274 273 271 268 266 265 264 263 260 262 265 258 252 247 255 18 103 111 117 126 123 124 132 130 139 356 216 181 218 234 252 270 277 276 272 275 203 193 226 251 255 159 162 165 230 277 279 280 285 285 284 285
266 277 278 295 295 281 270 268 272 277 279 275 274 272 277 279 279 275 275 279 284 288 291 292 293 291 290 286 282 277 273 272 271 271 268 267 267 266 265 266 268 265 265 260 259 266 226 111 103 111 106 113 118 123 127 131 132 78 23 16 20 67 264 264 278 274 284 290 284 289 237 208 218 228 44 50 66 348 279 278 282 278 285 285 289
274 281 337 290 287 287 290 291 286 278 274 273 274 275 275 274 274 274 272 275 279 283 287 289 288 286 284 283 282 279 277 274 274 270 268 266 266 266 264 261 261 263 263 264 27 76 96 104 98 100 105 104 112 124 130 117 89 72 41 39 353 322 320 304 305 303 293 289 284 283 325 58 76 52 39 17 7 330 297 284 279 274 277 306 328
294 298 284 278 278 281 277 271 272 282 284 281 279 280 281 280 279 278 281 281 281 279 281 283 282 282 281 280 279 277 275 273 273 276 274 272 268 266 264 266 263 261 250 66 106 104 104 101 100 99 102 108 113 116 130 125 129 111 72 13 301 37 38 335 309 286 278 276 286 288 14 92 89 91 118 216 227 240 240 260 272 276 290 294 291
290 291 291 294 290 284 282 284 281 275 273 275 278 278 278 278 274 276 279 278 280 283 283 283 283 282 282 280 278 274 269 268 264 262 268 268 272 272 270 266 264 243 211 183 125 117 117 113 113 117 121 131 137 141 149 152 149 151 177 202 278 307 81 299 284 284 287 286 282 289 157 125 345 265 257 255 257 267 267 273 277 279 277 275 272
282 284 288 289 287 284 282 283 286 288 286 283 282 281 281 281 281 285 282 280 278 276 276 275 276 276 276 276 275 271 265 258 264 269 267 265 263 259 262 266 238 210 182 170 163 131 126 126 127 129 130 133 140 144 151 158 171 185 185 205 208 226 234 264 305 297 294 289 287 286 326 344 323 319 316 306 295 286 281 279 275 273 272 272 271
286 286 288 285 281 282 283 284 285 286 284 280 277 278 282 281 283 284 280 278 276 276 277 278 278 280 281 280 276 274 272 271 272 270 268 264 259 257 256 233 192 165 172 170 170 145 139 136 134 138 143 145 147 152 158 171 179 191 199 202 208 211 222 218 242 279 282 288 298 301 298 294 297 284 277 274 270 258 252 256 259 261 263 267 277
284 284 280 281 287 288 287 283 280 280 282 283 283 281 281 282 283 279 278 279 278 280 281 281 284 283 281 279 278 279 277 272 268 264 261 260 264 261 239 186 175 171 174 171 156 144 142 141 144 145 144 146 157 162 168 176 189 200 206 209 213 214 217 213 225 259 279 291 292 295 294 282 272 264 260 273 288 298 296 282 268 260 260 259 262
279 283 289 285 282 285 287 289 288 286 285 284 284 282 281 282 283 285 282 281 282 280 280 280 278 277 273 273 272 269 270 271 267 263 263 256 235 182 160 169 174 171 169 168 153 147 146 145 141 148 148 157 163 164 170 166 183 199 202 201 213 225 220 223 229 248 253 262 288 299 308 299 281 276 274 275 273 273 270 265 264 259 259 261 260
280 279 284 286 287 287 289 290 290 292 289 282 279 278 282 284 283 281 280 279 279 279 275 274 274 274 276 273 271 267 265 266 268 271 230 166 168 174 159 149 158 164 167 161 160 146 136 140 150 148 151 153 161 142 86 79 53 25 355 342 327 336 349 347 343 357 341 319 307 295 276 266 275 270 269 283 293 300 301 304 302 304 299 296 291
283 286 288 288 288 284 283 281 280 280 281 282 280 281 282 281 284 289 298 293 285 282 279 277 278 275 269 268 268 273 272 245 179 140 90 92 141 109 92 101 95 109 112 116 116 117 128 135 147 152 160 160 114 81 68 63 72 55 20 350 342 356 358 335 20 2 316 306 303 294 303 305 306 305 303 301 303 304 307 304 302 299 300 299 297
284 284 280 278 278 281 283 285 285 285 283 283 286 285 287 301 312 306 293 286 284 281 279 276 275 275 272 264 253 225 173 155 140 119 99 67 37 61 99 106 80 67 78 71 76 115 123 121 82 47 43 94 92 100 114 93 91 91 82 14 2 338 299 294 304 303 288 295 308 317 314 313 311 308 307 305 303 305 304 305 303 299 296 293 291
278 278 278 277 279 281 282 283 284 285 283 283 284 291 311 317 316 308 301 293 287 283 282 281 278 264 269 254 181 161 149 144 132 126 119 105 100 61 51 62 85 88 79 75 72 70 67 71 89 96 77 84 100 104 97 94 98 96 334 261 254 244 251 257 266 291 294 331 325 317 318 316 315 313 310 307 306 305 303 303 303 302 299 293 292